OBJECT H, 51953

Orbit data source: Space-Track

You're viewing an Uncataloged Satellite

Recently launched and/or uncataloged satellites may have evolving metadata. Metadata may include but not limited to: Owner, Maufacturer, Bus, Motor, and Mission.

OBJECT H, 51953 is a satellite owned by CASC (CN) in LEO that was launched on Sat, 05 Mar 2022 UTC launched from the Xichang Space Center, China (XSC). Unknown objects in Earth's orbit typically refer to objects detected orbiting the Earth but have not yet been identified or cataloged. These objects could be anything from previously untracked satellites, spent rocket stages, debris from satellite collisions, or even natural meteoroids temporarily captured by Earth's gravity.

Loading next visibility...
Identifier
51953, 2022-023H
Orbit
LEO
Country
Flag of CNCN / PRC
Related business
Manufacturer
CALT
Mission
Spacecraft
Bus & Motor
CZ-2 STAGE 2, Unknown motor
Mass
~3,800 kg wet, ~3,800 kg dry
Launch date (UTC)
2022-03-05 (4 years ago)
Launch vehicle
Unknown
Launch site
Xichang Space Center, China (XSC)
Object type
Unknown
Shape & HBR
Cyl, 3.7 m
Radar Cross Section
23.715 m², Large (>1 m²)

Expand to show TLE details & history
Last TLE update: 1 day ago

TLE from 1 day ago
0 OBJECT H
1 51953U 22023H   26172.52577887  .00004455  00000-0  17131-3 0  9993
2 51953  63.6325   4.2997 0100233 306.9906  52.2067 15.23398282236919
Epoch: 2026-06-21T12:37Z
TLE epoch observation values (Epoch: 2026-06-21T12:37:07.294Z)
Latitude
-0.00007°
Longitude
-94.70552°
Altitude
455.746 km
Speed
7.663 km/s
True Right ascension
00h 17m 11s
True Declination
0° 00' 00"
Sunlit
Object was in daylight at epoch
Visualization orbit readout
Latitude
Unknown
Longitude
Unknown
Altitude
Unknown
Speed
Unknown
Apparent Right ascension
Unknown
Apparent Declination
Unknown
Sunlit
N/A
Visualization observer readout
Local Sidereal Time
00:26:58
Azimuth
Unknown
Elevation
Unknown
Doppler factor
Unknown
Orbital elements
Apogee altitude
563.18 km
Perigee altitude
425.411 km
Semi-major axis
6,872.433 km
Eccentricity
0.01002
Inclination
63.6325°
RAAN
4.2997°
Arg. of periapsis
306.9906°
True anomaly
53.12132°
Mean anomaly
52.2067°
Eccentric anomaly
52.66331°
Mean motion
3.80958 °/min
Orbital period
94.5 mins
BSTAR
0.00017131
Loading maneuver chart data...
Computing Atmospheric mass density...
Loading historical data...
Loading historical data...
Loading historical data...
Loading historical data...
Loading historical data...
Loading historical data...
Loading historical data...

Documentation

Showing up to 5 results
|